Wind_Speed
20 19 19 18 22 18 18 18 17 16 15 15 14 14 13 12 10 9 8 8 7 6 5 4 4 5 6 7 7 8 9 10 10 9 9 9 9 9 8 7 7 7 7 6 6 6 6 5 5
20 19 19 21 20 18 18 19 18 17 16 15 14 14 13 12 11 10 9 8 7 6 5 5 4 4 5 6 7 8 8 9 9 9 9 9 9 8 7 7 7 7 6 6 5 6 6 6 5
20 19 20 21 18 18 18 19 19 18 17 16 15 15 14 13 12 10 9 9 7 6 5 4 4 4 4 5 6 7 8 8 9 9 9 8 9 8 7 7 7 7 6 6 6 6 6 6 5
19 20 21 18 18 18 19 20 19 19 18 17 17 16 15 14 12 11 10 9 7 5 4 3 3 3 4 4 5 6 7 8 8 8 8 8 9 8 7 7 7 7 7 6 6 6 5 5 5
18 21 19 18 19 20 20 20 20 21 20 19 18 18 17 15 14 12 11 9 7 6 4 3 3 3 3 4 5 5 6 7 8 8 8 8 8 8 7 6 6 7 7 7 6 5 5 5 6
19 20 17 18 19 21 21 21 22 22 20 19 19 18 17 17 15 13 11 10 8 7 5 3 2 2 3 4 4 5 6 6 7 7 8 8 7 7 7 6 6 6 6 6 6 5 4 5 6
18 17 17 18 19 21 21 21 22 22 21 20 19 19 18 17 15 14 12 10 8 7 5 4 2 2 2 3 3 4 5 5 7 7 8 7 7 7 7 7 6 5 5 6 6 5 4 5 5
15 16 16 17 19 20 20 21 21 22 21 20 19 19 19 18 16 14 13 10 9 7 6 4 3 1 1 2 3 4 4 5 6 7 7 7 6 7 7 7 6 6 5 6 6 5 5 5 5
14 14 13 15 18 18 19 20 20 21 21 20 20 20 19 18 17 15 14 11 9 8 7 6 3 2 1 2 3 3 4 5 6 6 6 6 5 6 7 7 6 6 6 6 6 6 5 5 5
13 11 12 15 16 17 18 19 20 21 21 20 20 19 18 18 17 16 14 12 10 9 7 6 4 2 2 2 2 3 4 5 5 6 6 5 5 5 6 6 6 6 6 6 6 6 5 5 5
11 11 12 14 15 16 17 18 19 20 20 19 19 19 19 18 18 17 15 13 11 9 8 7 6 4 2 2 3 3 4 4 4 5 5 5 5 5 5 6 6 6 6 6 6 5 5 5 5
8 9 10 12 13 14 16 17 18 19 19 18 18 19 19 18 18 17 16 14 11 9 8 8 7 6 4 3 3 3 3 4 4 5 5 5 5 5 5 5 6 6 5 6 6 5 5 5 5
6 7 8 10 11 12 14 15 16 18 17 18 18 19 18 17 18 17 16 15 13 10 9 8 7 6 5 3 2 3 3 3 4 5 5 5 5 5 5 5 5 5 5 5 5 4 5 5 4
5 6 6 8 9 10 12 13 14 16 16 17 18 18 18 17 17 17 16 15 13 11 10 8 7 6 5 3 3 3 3 3 4 5 5 5 5 4 5 5 5 4 4 5 4 4 4 4 4
5 4 4 5 7 9 10 12 12 13 15 16 16 17 17 17 18 18 17 15 13 11 10 8 7 7 6 5 3 3 3 3 4 4 5 4 4 4 4 5 4 4 4 4 4 4 4 4 3
4 3 1 2 4 6 8 9 10 11 13 14 15 16 16 16 17 17 16 15 14 11 10 9 8 6 6 5 4 3 2 2 3 3 3 4 4 4 4 4 4 4 4 4 4 4 4 4 3
4 2 2 0 3 4 6 6 7 9 11 12 14 14 15 16 15 15 15 14 13 12 11 10 8 6 6 5 3 2 2 2 2 2 3 3 3 4 4 4 4 4 4 5 4 4 4 4 4
6 4 3 2 1 2 4 5 6 8 10 11 12 13 14 15 15 15 15 14 13 11 11 10 9 7 5 4 3 2 1 1 1 1 2 2 3 3 3 4 4 4 4 5 5 5 5 5 5
7 5 5 4 3 2 3 4 5 7 8 10 12 12 13 14 15 14 14 14 13 12 11 11 10 7 6 5 3 2 1 0 1 1 2 2 3 3 3 4 5 5 5 6 6 6 6 7 7
7 6 6 5 4 3 3 4 5 6 7 9 11 12 13 14 15 15 14 14 13 12 12 11 10 8 6 4 4 2 2 1 1 1 1 2 3 4 4 4 5 6 6 7 8 8 8 8 9
9 8 8 7 5 5 4 5 6 6 7 8 10 11 12 14 14 14 14 14 13 12 11 11 10 8 6 5 4 3 3 2 2 2 2 3 4 4 4 5 5 7 8 8 8 9 9 9 10
12 10 9 8 7 7 5 5 8 7 7 8 9 11 12 13 13 14 14 13 13 13 11 11 10 8 7 6 5 3 3 3 3 3 3 3 4 4 5 5 6 7 7 8 9 10 10 10 10
14 12 11 10 9 9 8 6 8 9 8 7 8 10 11 12 13 14 14 13 12 12 11 10 10 9 7 6 5 4 3 3 4 4 4 4 4 5 6 6 7 8 8 9 10 11 11 11 12
15 14 13 12 10 10 10 8 7 9 8 7 8 10 11 11 12 13 13 12 12 12 11 10 10 9 8 6 5 4 4 4 5 5 5 5 5 5 6 7 8 9 9 10 10 10 11 12 13
18 15 13 12 11 12 11 9 9 8 8 8 9 10 10 11 12 13 13 12 12 11 10 10 10 9 8 7 5 5 5 5 6 6 6 6 6 6 7 7 8 9 9 10 10 11 11 12 12
20 18 15 13 12 12 13 11 10 9 9 9 10 10 10 11 11 12 12 11 11 11 10 10 10 9 8 8 6 6 6 6 6 7 7 7 7 7 8 8 8 9 10 11 11 12 12 12 12
23 21 18 17 15 13 13 13 11 11 11 10 10 10 10 10 10 11 12 11 11 10 10 10 9 9 8 8 7 7 7 6 7 7 8 8 7 8 9 9 10 10 10 11 12 12 13 13 13
25 23 21 18 17 15 14 13 12 12 11 11 11 10 10 10 11 11 11 10 10 10 10 10 9 9 9 8 8 8 7 7 7 7 7 7 7 8 8 9 10 10 10 11 12 12 13 14 14
26 25 23 20 19 16 13 13 14 13 12 12 11 10 10 10 11 11 10 10 10 10 9 9 9 9 9 9 9 8 8 8 8 8 8 8 9 9 9 10 10 10 11 11 11 12 13 14 14
28 26 24 23 22 19 16 14 16 14 13 13 13 11 11 10 10 11 10 10 10 10 10 9 9 9 9 9 9 9 9 9 9 9 10 10 10 10 10 10 11 11 11 11 12 13 14 14 14
Wind_Direction
71 69 69 71 67 67 70 70 68 66 67 67 68 67 68 70 70 71 73 75 75 77 84 96 110 116 115 119 122 122 122 121 119 116 113 113 118 118 118 122 120 120 122 124 129 132 130 128 129
73 70 69 69 70 67 67 67 67 65 64 65 66 65 64 63 64 66 71 73 74 76 81 92 110 121 121 122 124 124 122 121 120 119 116 114 116 121 120 121 122 123 123 125 131 130 129 132 129
74 71 69 67 68 67 67 66 64 63 62 63 64 64 63 61 60 61 64 68 71 75 80 92 109 124 127 127 128 126 124 125 125 126 125 121 120 122 122 122 125 127 127 128 131 133 133 133 125
75 72 66 65 65 65 65 64 63 62 61 60 60 61 60 58 55 55 57 60 61 65 71 84 101 119 127 132 129 129 129 129 130 132 133 132 130 129 127 127 129 133 131 130 135 134 140 136 132
74 71 64 62 64 64 62 62 62 62 60 58 58 58 56 53 49 47 48 50 51 52 58 77 93 111 115 128 136 138 137 136 137 137 136 136 137 134 130 129 131 132 134 136 135 135 136 141 132
75 72 70 66 64 62 61 61 62 60 58 55 55 55 53 50 45 42 43 43 41 40 42 54 78 114 122 131 136 145 146 146 148 147 144 141 142 139 135 131 132 133 136 139 133 128 130 138 131
79 79 73 69 65 61 60 58 59 58 54 52 52 52 50 46 44 41 40 39 38 36 35 41 57 104 127 142 146 148 152 155 156 157 155 150 152 149 143 138 134 133 136 138 133 128 129 138 138
79 75 69 68 66 60 58 57 56 55 54 52 51 50 48 46 42 40 39 36 36 36 37 47 44 84 122 141 146 149 155 160 162 159 160 157 154 154 150 142 139 133 131 135 137 133 127 130 136
77 75 73 70 68 61 57 56 54 53 53 52 51 50 47 44 41 39 37 35 36 38 39 41 44 67 92 126 138 143 148 154 161 161 162 161 155 154 151 147 141 138 135 136 138 137 135 133 130
84 87 78 72 68 62 57 55 52 51 50 49 48 46 44 41 40 36 34 33 35 37 37 36 37 61 86 107 127 138 139 144 153 158 160 157 154 152 151 153 148 143 140 139 137 141 143 142 139
92 95 84 73 67 61 56 53 50 49 47 45 43 43 41 40 39 35 31 31 34 38 38 36 40 51 68 105 123 136 145 148 148 154 161 156 151 150 152 155 152 147 146 145 146 146 145 146 144
97 95 86 77 69 63 57 51 49 48 47 43 40 39 38 37 37 34 30 31 32 35 37 41 45 53 68 93 113 128 138 142 150 152 154 155 157 157 157 158 157 153 150 151 151 153 154 150 148
104 97 84 79 70 63 57 52 48 46 44 40 37 35 33 32 30 29 28 27 29 32 35 39 43 45 59 67 90 115 130 134 145 154 153 153 156 157 159 155 158 156 157 154 153 151 151 158 161
118 105 86 80 70 62 54 50 46 43 40 35 32 30 28 27 25 24 22 22 26 29 33 36 38 39 45 52 82 105 112 122 138 152 155 156 158 159 157 160 164 169 170 171 170 167 166 172 175
131 112 80 78 70 61 51 46 41 38 34 30 28 25 23 22 22 22 21 21 23 26 29 31 29 33 43 53 73 99 114 123 135 153 163 165 163 161 158 159 167 176 178 180 184 184 184 189 195
153 118 62 64 67 60 50 39 31 30 27 26 23 21 17 15 16 16 17 19 20 22 23 24 22 29 32 36 51 89 113 131 143 155 177 188 184 178 177 177 184 192 194 193 197 199 200 204 211
189 196 225 348 50 53 50 38 26 22 21 19 17 14 12 9 10 11 12 13 14 16 16 16 15 21 19 21 52 94 103 120 141 165 180 183 189 191 194 198 201 207 203 206 207 207 212 223 230
215 218 234 251 336 33 35 20 12 14 12 11 10 8 6 5 5 7 9 10 11 12 10 8 6 9 8 23 39 58 83 126 129 171 187 198 203 206 210 213 208 212 214 219 222 224 229 240 248
217 224 241 249 280 341 7 0 359 3 4 5 4 4 5 4 3 4 6 7 7 8 6 5 5 2 3 12 19 20 23 65 181 180 203 217 218 221 227 229 230 230 230 231 234 238 244 248 253
224 230 246 257 277 309 330 336 340 350 357 359 360 1 1 1 360 359 2 2 2 5 6 3 2 357 355 0 359 358 357 320 305 261 247 244 241 237 243 247 245 246 247 244 245 250 254 254 255
229 229 241 258 278 299 314 325 323 334 341 351 355 354 355 356 359 359 360 359 0 1 358 357 357 353 347 348 348 346 351 351 347 319 293 277 265 256 251 252 256 257 257 257 256 257 259 259 261
235 236 242 256 272 284 297 291 302 316 323 337 348 350 350 352 357 358 357 357 357 358 356 354 352 351 344 334 337 334 337 327 318 318 305 288 277 266 261 263 261 262 262 262 264 265 264 261 262
235 240 248 258 267 273 284 279 286 303 310 321 334 341 343 347 352 354 354 354 357 358 356 354 352 353 348 336 329 324 320 315 313 319 315 298 285 275 269 269 265 266 266 270 271 270 269 265 265
236 244 253 260 266 269 271 275 282 294 300 309 320 330 336 341 345 349 351 353 355 355 358 357 355 351 346 339 328 329 329 316 317 315 310 304 296 286 278 274 273 272 272 274 278 276 275 271 272
235 241 252 258 262 265 269 270 275 287 293 302 312 322 327 334 339 344 348 352 354 353 355 357 355 353 351 342 335 336 337 329 323 320 312 306 301 296 288 283 282 280 279 280 281 280 278 277 276
236 238 239 244 254 265 271 269 275 282 287 294 304 312 317 326 334 339 345 349 351 352 354 356 355 353 350 344 340 336 335 334 328 327 319 309 303 299 295 290 287 283 282 284 284 285 283 282 281
238 238 240 246 250 254 264 270 273 278 284 289 296 303 309 318 327 334 339 345 347 350 352 352 352 351 348 344 336 332 329 332 328 325 325 313 310 307 301 298 291 289 288 287 287 285 285 283 281
236 238 241 242 248 254 263 269 267 274 277 283 289 295 302 311 321 329 335 339 343 348 349 348 348 348 345 341 337 333 330 329 325 326 327 323 316 312 309 304 299 291 292 292 291 288 289 288 285
236 238 241 242 243 246 255 263 266 266 270 276 279 285 294 302 312 321 326 332 339 344 345 344 343 341 340 338 335 333 330 328 324 322 321 323 325 319 316 315 311 307 302 297 293 294 291 292 289
237 238 240 242 248 249 247 254 264 263 264 269 271 275 285 293 303 308 315 322 331 336 337 337 339 338 336 334 332 331 330 328 323 321 318 316 317 315 312 311 310 310 308 301 295 296 296 295 292
Height
5916 5915 5914 5914 5914 5914 5911 5910 5908 5906 5904 5903 5901 5900 5900 5899 5900 5901 5898 5895 5895 5895 5894 5894 5894 5894 5894 5894 5894 5894 5894 5894 5894 5895 5895 5895 5896 5896 5897 5897 5897 5898 5899 5899 5900 5900 5901 5901 5902
5918 5918 5918 5917 5918 5916 5914 5912 5910 5908 5907 5905 5903 5902 5901 5900 5900 5899 5897 5897 5897 5896 5896 5895 5895 5895 5895 5895 5895 5895 5895 5895 5895 5895 5896 5896 5896 5897 5897 5897 5898 5898 5899 5900 5900 5901 5901 5902 5902
5921 5921 5921 5921 5920 5918 5916 5914 5911 5909 5908 5906 5905 5904 5903 5902 5901 5900 5899 5898 5898 5897 5897 5896 5896 5896 5896 5895 5895 5895 5896 5896 5896 5896 5896 5897 5897 5897 5898 5898 5898 5899 5899 5900 5900 5901 5901 5902 5902
5924 5924 5924 5926 5923 5921 5918 5916 5914 5911 5910 5908 5907 5906 5904 5903 5902 5901 5900 5899 5898 5898 5898 5897 5897 5897 5896 5896 5896 5896 5896 5896 5897 5897 5897 5897 5898 5898 5898 5898 5899 5899 5900 5900 5901 5901 5902 5902 5903
5926 5927 5929 5928 5925 5923 5921 5918 5916 5914 5912 5910 5909 5907 5906 5905 5903 5902 5901 5900 5899 5899 5898 5898 5897 5897 5897 5897 5897 5896 5897 5897 5897 5898 5898 5898 5898 5898 5898 5899 5899 5900 5900 5900 5901 5902 5902 5903 5903
5930 5931 5933 5930 5928 5925 5923 5920 5918 5916 5914 5913 5911 5909 5907 5906 5905 5904 5902 5901 5900 5899 5899 5898 5898 5898 5897 5897 5897 5897 5897 5897 5898 5898 5898 5898 5898 5898 5899 5899 5899 5900 5900 5901 5901 5902 5903 5903 5903
5933 5935 5934 5932 5930 5928 5925 5923 5920 5918 5916 5915 5913 5911 5909 5907 5906 5905 5903 5902 5901 5900 5899 5899 5898 5898 5897 5897 5897 5897 5897 5897 5898 5898 5898 5898 5898 5899 5899 5900 5900 5900 5901 5901 5902 5902 5903 5904 5904
5935 5937 5936 5935 5932 5930 5928 5925 5923 5921 5919 5917 5915 5913 5911 5910 5908 5906 5904 5903 5902 5901 5900 5899 5898 5898 5897 5897 5897 5897 5897 5897 5898 5898 5898 5899 5899 5899 5899 5900 5900 5901 5901 5902 5902 5903 5904 5904 5904
5938 5942 5939 5937 5934 5933 5930 5928 5926 5923 5921 5919 5917 5915 5913 5911 5909 5908 5906 5904 5903 5902 5901 5900 5899 5898 5897 5897 5897 5897 5897 5897 5897 5898 5898 5898 5899 5899 5899 5900 5901 5901 5902 5902 5903 5903 5904 5904 5905
5941 5944 5941 5938 5936 5934 5932 5930 5928 5925 5923 5921 5919 5917 5915 5913 5911 5909 5907 5905 5904 5902 5901 5900 5899 5898 5898 5897 5897 5897 5897 5897 5897 5898 5898 5899 5899 5899 5900 5900 5901 5902 5902 5902 5903 5904 5904 5905 5905
5942 5943 5942 5940 5938 5936 5934 5932 5930 5928 5926 5924 5921 5919 5917 5914 5912 5910 5908 5906 5905 5903 5902 5901 5899 5898 5898 5897 5897 5897 5897 5897 5897 5898 5898 5899 5899 5899 5900 5901 5901 5902 5902 5903 5903 5904 5905 5905 5906
5944 5943 5942 5941 5940 5938 5936 5934 5932 5930 5929 5926 5924 5921 5919 5917 5914 5912 5910 5908 5906 5904 5903 5902 5900 5899 5898 5898 5897 5897 5897 5897 5898 5898 5898 5899 5899 5900 5900 5901 5901 5902 5903 5903 5904 5904 5905 5905 5906
5944 5944 5943 5942 5941 5940 5938 5936 5934 5932 5930 5928 5926 5923 5921 5919 5916 5914 5912 5910 5908 5906 5904 5902 5901 5900 5899 5898 5898 5898 5898 5898 5898 5898 5898 5899 5899 5900 5900 5901 5902 5902 5903 5903 5904 5904 5905 5905 5906
5945 5945 5944 5943 5942 5941 5939 5938 5936 5934 5932 5930 5928 5925 5923 5920 5918 5915 5913 5911 5909 5907 5905 5903 5902 5901 5899 5899 5898 5898 5898 5898 5898 5899 5899 5899 5900 5900 5901 5901 5902 5903 5903 5904 5904 5904 5905 5905 5906
5946 5946 5946 5945 5944 5942 5942 5940 5938 5936 5934 5932 5929 5927 5925 5922 5920 5917 5914 5912 5910 5908 5906 5905 5903 5902 5900 5899 5899 5899 5899 5898 5899 5899 5899 5900 5900 5900 5901 5901 5902 5903 5903 5904 5904 5904 5905 5905 5906
5946 5947 5948 5946 5945 5943 5944 5943 5940 5938 5935 5933 5931 5928 5926 5924 5921 5918 5916 5913 5911 5909 5907 5906 5904 5902 5901 5900 5900 5899 5899 5899 5899 5899 5900 5900 5900 5901 5901 5902 5902 5903 5903 5903 5904 5904 5905 5905 5906
5947 5949 5948 5947 5945 5944 5944 5943 5941 5939 5937 5934 5932 5930 5927 5925 5922 5919 5917 5914 5912 5910 5908 5906 5904 5903 5902 5901 5900 5900 5900 5899 5899 5899 5899 5900 5900 5900 5901 5901 5902 5902 5903 5903 5903 5904 5904 5905 5905
5947 5948 5947 5947 5946 5945 5944 5944 5942 5940 5937 5935 5933 5931 5928 5926 5923 5920 5918 5915 5913 5910 5908 5907 5905 5904 5902 5901 5900 5900 5900 5899 5899 5899 5899 5899 5899 5900 5900 5901 5901 5902 5902 5903 5903 5903 5903 5903 5904
5945 5946 5946 5946 5945 5945 5944 5944 5942 5940 5938 5936 5934 5932 5930 5927 5924 5921 5918 5916 5913 5911 5909 5907 5905 5904 5902 5901 5900 5900 5900 5899 5899 5899 5899 5899 5899 5899 5900 5900 5901 5901 5901 5901 5902 5902 5902 5902 5902
5942 5944 5945 5944 5944 5944 5944 5943 5942 5940 5939 5937 5935 5933 5931 5928 5925 5921 5919 5916 5914 5911 5910 5908 5906 5904 5903 5902 5901 5900 5900 5899 5899 5899 5899 5899 5899 5899 5899 5899 5899 5900 5900 5900 5900 5900 5901 5901 5901
5941 5942 5943 5943 5943 5943 5943 5943 5942 5940 5938 5937 5935 5933 5931 5928 5925 5922 5920 5917 5914 5912 5910 5908 5906 5904 5903 5902 5901 5900 5899 5899 5899 5899 5899 5898 5898 5898 5898 5898 5898 5898 5898 5899 5899 5899 5899 5899 5899
5938 5940 5941 5941 5942 5943 5943 5945 5941 5939 5938 5937 5935 5933 5931 5929 5926 5923 5920 5917 5914 5912 5910 5908 5906 5904 5903 5901 5901 5900 5899 5899 5899 5898 5898 5897 5897 5897 5897 5897 5897 5897 5897 5897 5897 5897 5897 5897 5897
5936 5937 5938 5939 5940 5941 5941 5942 5943 5938 5937 5936 5935 5933 5931 5928 5926 5923 5920 5917 5915 5912 5910 5908 5906 5904 5903 5901 5900 5899 5899 5898 5898 5898 5897 5896 5896 5896 5895 5895 5895 5895 5895 5895 5894 5894 5894 5894 5894
5932 5935 5936 5937 5938 5939 5939 5939 5940 5937 5936 5935 5934 5932 5930 5928 5925 5922 5920 5917 5915 5912 5910 5908 5906 5904 5903 5901 5900 5899 5898 5898 5897 5897 5896 5895 5895 5894 5894 5894 5893 5893 5893 5893 5892 5892 5891 5891 5891
5929 5933 5935 5936 5937 5938 5936 5936 5937 5935 5934 5933 5932 5931 5929 5927 5925 5922 5919 5917 5914 5912 5910 5908 5906 5904 5902 5901 5900 5899 5898 5897 5896 5896 5895 5894 5893 5893 5892 5892 5892 5891 5891 5890 5889 5889 5888 5888 5888
5925 5929 5933 5935 5936 5936 5933 5933 5934 5932 5931 5931 5930 5929 5927 5926 5924 5921 5919 5916 5914 5912 5910 5908 5906 5904 5902 5901 5900 5899 5898 5897 5895 5895 5893 5892 5892 5891 5890 5890 5889 5889 5888 5888 5887 5886 5885 5885 5885
5921 5924 5927 5930 5930 5931 5932 5930 5930 5929 5929 5928 5928 5927 5926 5924 5923 5921 5918 5916 5913 5911 5909 5908 5906 5904 5902 5901 5899 5898 5897 5896 5895 5893 5892 5891 5890 5889 5889 5888 5887 5886 5886 5885 5884 5883 5883 5882 5882
5916 5919 5921 5924 5926 5928 5929 5928 5928 5926 5926 5926 5925 5924 5924 5922 5921 5919 5917 5915 5913 5911 5909 5907 5905 5903 5902 5900 5899 5897 5896 5895 5894 5892 5891 5889 5888 5888 5887 5885 5884 5883 5883 5882 5881 5880 5880 5879 5878
5911 5913 5916 5919 5921 5924 5926 5928 5923 5923 5923 5923 5922 5922 5921 5920 5919 5918 5916 5914 5912 5910 5908 5906 5904 5903 5901 5900 5898 5897 5895 5894 5892 5891 5890 5888 5887 5886 5885 5883 5882 5881 5880 5879 5878 5877 5876 5876 5875
5904 5907 5911 5914 5915 5917 5921 5925 5919 5919 5920 5920 5919 5919 5919 5918 5917 5916 5914 5913 5911 5909 5907 5905 5903 5902 5900 5899 5897 5896 5894 5893 5891 5890 5888 5887 5886 5884 5883 5882 5880 5879 5877 5876 5875 5874 5873 5872 5871